Location: Grange Verzio
(44.5000°N, 6.9833°E)
Time: 18:00:56
(UTC+00:00)

Cosmos 2219 Rocket - Pass Details

Date: 30 September 2023
Orbit: 826 x 848 km, 71.0° (Epoch: 08 December)

Event Time Altitude Azimuth Distance (km) Brightness Sun altitude
Rises 03:56:12 0° 328° (NNW) 3,397 5.2 -17.1°
Reaches altitude 10° 03:58:45 10° 322° (NW) 2,462 4.4 -16.7°
Maximum altitude 04:04:02 43° 253° (WSW) 1,172 2.5 -15.7°
Drops below altitude 10° 04:09:20 10° 183° (S) 2,459 4.5 -14.8°
Sets 04:11:52 0° 177° (S) 3,391 5.3 -14.4°
